Regional Weather Roundup
Issued by NWS

Home | Current Version | Previous Version | Text Only | Print | Product List | Glossary Off
Versions: 1 2 3 4 5 6 7 8 9 10 11 12 13 14 15 16 17 18 19 20 21 22 23 24 25 26 27 28 29 30 31 32 33 34 35 36 37 38 39 40 41 42 43 44 45 46 47 48 49 50

000
ASUS43 KMKX 180521
RWRWI

WISCONSIN REGIONAL WEATHER ROUNDUP
NATIONAL WEATHER SERVICE MILWAUKEE/SULLIVAN WI
1200 AM CDT FRI AUG 18 2017

NOTE: "FAIR" INDICATES FEW OR NO CLOUDS BELOW 12,000 FEET WITH NO
SIGNIFICANT WEATHER AND/OR OBSTRUCTIONS TO VISIBILITY.

WIZ001-002-006>008-014>016-023>028-180600-
NORTHWEST WISCONSIN

CITY           SKY/WX    TMP DP  RH WIND       PRES   REMARKS
SUPERIOR ARPT    N/A     60  58  94 NW7       29.78S
ASHLAND        CLOUDY    63  60  90 W9        29.75R
HAYWARD        CLOUDY    62  59  90 VRB3      29.79R
SIREN          CLOUDY    61  60  94 W3        29.82F
CUMBERLAND     CLOUDY    61  57  88 NW9       29.81S
RICE LAKE      CLOUDY    63  58  84 NW7G16    29.82S
CHETEK         CLOUDY    64  60  87 NW6       29.80S
LADYSMITH      CLOUDY    63  61  92 NW10      29.79R
EAU CLAIRE     CLOUDY    65  59  81 NW8       29.79S
MENOMONIE      CLOUDY    65  59  80 W8        29.81S
NEW RICHMOND   CLOUDY    64  61  88 NW6       29.83S
OSCEOLA        MOCLDY    64  59  83 NW5       29.86R
$$

WIZ003>005-009-010-017-018-180600-
NORTH CENTRAL WISCONSIN

CITY           SKY/WX    TMP DP  RH WIND       PRES   REMARKS
MANITOWISH WTR RAIN      59  59 100 NW9G16    29.71S
ARBOR VITAE    CLOUDY    62  60  93 NW12G18   29.71R FOG
WOODRUFF       CLOUDY    62  60  93 NW12G18   29.71R FOG
RHINELANDER    CLOUDY    61  59  93 VRB6G17   29.70S
EAGLE RIVER    DRIZZLE   59  59  99 NW9G17    29.68S
LAND O LAKES   CLOUDY    60  59  97 NW8G17    29.70R
PHILLIPS       CLOUDY    60  60 100 NW5       29.74R FOG
TOMAHAWK         N/A     60  57  91 W8G17     29.72S
MEDFORD        CLOUDY    61  59  94 NW12      29.75R
MERRILL        NOT AVBL
$$

WIZ029-030-035-036-043>047-180600-
CENTRAL WISCONSIN

CITY           SKY/WX    TMP DP  RH WIND       PRES   REMARKS
WAUSAU         LGT RAIN  62  60  93 NW9       29.71R
MOSINEE        CLOUDY    63  61  94 W10G16    29.74R
MARSHFIELD     CLOUDY    63  60  90 NW12      29.75R
STEVENS POINT  CLOUDY    62  61  98 W7        29.73S
WAUPACA        CLOUDY    67  62  84 W10       29.70S
WAUTOMA        NOT AVBL
WISC RAPIDS    LGT RAIN  63  62  97 W8        29.76S
CAMP DOUGLAS   PTCLDY    64  63  94 W12       29.77S
$$

WIZ011>013-019>022-031-037>040-048>050-180600-
NORTHEAST WISCONSIN

CITY           SKY/WX    TMP DP  RH WIND       PRES   REMARKS
ANTIGO         CLOUDY    60  58  96 NW12      29.70R
SHAWANO        CLOUDY    65  59  80 W12G17    29.67R
OCONTO         CLOUDY    64  61  88 W9G17     29.61S
STURGEON BAY   CLOUDY    67  63  87 W17G24    29.60R
GREEN BAY      CLOUDY    66  61  84 W17       29.65R
MANITOWOC      CLOUDY    68  62  81 W13       29.65S
APPLETON       CLOUDY    64  55  72 W16       29.67S
CLINTONVILLE   CLOUDY    64  55  72 NW12G20   29.68R
OSHKOSH        PTCLDY    65  60  84 W10G17    29.69S
$$

WIZ032>034-041-042-053>061-180600-
SOUTHWEST WISCONSIN

CITY           SKY/WX    TMP DP  RH WIND       PRES   REMARKS
LA CROSSE      CLOUDY    71  64  78 NW9       29.79S
SPARTA         CLOUDY    65  61  85 NW9       29.80S
VIROQUA        CLOUDY    64  64 100 W5        29.82R
BOSCOBEL       LGT RAIN  70  65  84 N3        29.80S
PRAIRIE DU CHI MOCLDY    67  62  84 CALM      29.81S
PLATTEVILLE    MOCLDY    67  67 100 W8        29.83R
$$

WIZ056-057-062-063-064-067-068-180600-
SOUTH CENTRAL WISCONSIN

CITY           SKY/WX    TMP DP  RH WIND       PRES   REMARKS
REEDSBURG      CLOUDY    66  62  87 W13       29.77S
BARABOO/DELLS  CLOUDY    66  59  79 NW9       29.77S
LONE ROCK      PTCLDY    66  64  93 W9        29.79S
MINERAL POINT  CLOUDY    68  68 100 NW5       29.81R
MADISON        CLOUDY    67  61  81 W3        29.76S
MIDDLETON      CLOUDY    67  63  84 W9        29.78R
WATERTOWN      CLOUDY    65  64  94 W7        29.75R
MONROE         DRIZZLE   64  63  94 NW10G16   29.80R
JANESVILLE     CLOUDY    68  66  94 W8        29.77S
$$

WIZ051-052-058>065-066-070>072-180600-
SOUTHEAST WISCONSIN

CITY           SKY/WX    TMP DP  RH WIND       PRES   REMARKS
MILWAUKEE      CLOUDY    70  62  76 W15       29.72S
WAUKESHA       CLOUDY    63  59  88 W15       29.75R
MILWAUKEE/TIMM PTCLDY    64  57  77 W16       29.73S
RACINE         PTCLDY    69  62  78 W12       29.75R
KENOSHA        MOCLDY    69  61  75 W12       29.74S
FOND DU LAC    MOCLDY    66  59  78 W10G22    29.71S
SHEBOYGAN      CLOUDY    67  63  87 W14G23    29.67S
WEST BEND      CLOUDY    64  61  88 W13G20    29.71R
JUNEAU         CLOUDY    64  61  87 W8        29.75R
$$

LSZ147-162-180600-
LAKE SUPERIOR

STATION/POSITION TIME  TEMP    WIND        PRES    WAVE
                       AIR SEA DIR/SP/G            HT/PER
                 (UTC) (F)     (DEG/KT/KT) (MB)    (FT/S)
W MID LAKE BUOY  0450   61 60  300/ 14/ 16 1004.3R   3/ 5
DEVILS ISLAND    0500   63     300/ 12/ 13 1006.6R
SAXON HARBOR     0440   64     270/  9/ 13 1006.1S
$$

LMZ867-665-643>646-180600-
LAKE MICHIGAN

STATION/POSITION TIME  TEMP    WIND        PRES    WAVE
                       AIR SEA DIR/SP/G            HT/PER
                 (UTC) (F)     (DEG/KT/KT) (MB)    (FT/S)
S GREEN BAY BUOY 0500   68 71  280/ 17/ 23 1002.6
N MID LAKE BUOY  0450   68 67  240/ 12/ 16 1000.0S   4/ 6
NORTHPORT PIER   0440   69     260/  6/ 12 1000.7R
KEWAUNEE LAKESHO 0454   67     270/ 12/ 19 1002.2R
SHEBOYGAN LAKESH 0500   68     280/ 11/ 14 1004.3R
PORT WASHINGTON  0440   68     270/  8/ 16 1006.1S
ATWATER BUOY     0409   69 69  260/ 14/ 17 1006.4R
MILWAUKEE LAKESH 0500   69     260/ 12/ 16   N/A
S MID LAKE BUOY  0450   71 71  310/ 21/ 25 1005.9R   5/ 5
KENOSHA   LAKESH 0500   71     260/ 13/ 18 1007.1
$$

TC  - TEMPERATURE IN CELSIUS
VSB - VISIBILITY IN STATUTE MILES
WCI - WIND CHILL INDEX
HX  - HEAT INDEX





USA.gov is the U.S. government's official web portal to all federal, state and local government web resources and services.